Time,TemperatureF,DewpointF,PressureIn,WindDirection,WindDirectionDegrees,WindSpeedMPH,WindSpeedGustMPH,Humidity,HourlyPrecipIn,Conditions,Clouds,dailyrainin,SolarRadiationWatts/m^2,SoftwareType,DateUTC
2013-10-30 00:09:00,49.8,43.0,30.19,SSE,148,0.0,-999.0,76,-99.99,,,0.00,0,weatherlink.com 1.10,2013-10-30 04:09:00,
2013-10-30 00:24:00,49.4,43.0,30.18,SSE,148,0.0,-999.0,78,-99.99,,,0.00,0,weatherlink.com 1.10,2013-10-30 04:24:00,
2013-10-30 00:39:00,49.4,43.0,30.18,SE,133,0.0,-999.0,78,-99.99,,,0.00,0,weatherlink.com 1.10,2013-10-30 04:39:00,
2013-10-30 00:54:00,49.7,43.0,30.17,SE,141,4.0,-999.0,77,-99.99,,,0.00,0,weatherlink.com 1.10,2013-10-30 04:54:00,
2013-10-30 01:09:00,49.7,43.0,30.16,SE,126,0.0,-999.0,78,-99.99,,,0.00,0,weatherlink.com 1.10,2013-10-30 05:09:00,
2013-10-30 01:24:00,48.9,43.0,30.16,ENE,60,0.0,-999.0,79,-99.99,,,0.00,0,weatherlink.com 1.10,2013-10-30 05:24:00,
2013-10-30 01:39:00,49.3,43.0,30.16,ENE,75,2.0,-999.0,79,-99.99,,,0.00,0,weatherlink.com 1.10,2013-10-30 05:39:00,
2013-10-30 01:54:00,48.5,43.0,30.16,NNE,28,3.0,-999.0,81,-99.99,,,0.00,0,weatherlink.com 1.10,2013-10-30 05:54:00,
2013-10-30 02:09:00,48.8,43.0,30.15,ENE,66,0.0,-999.0,80,-99.99,,,0.00,0,weatherlink.com 1.10,2013-10-30 06:09:00,
2013-10-30 02:24:00,48.7,43.0,30.15,ENE,60,2.0,-999.0,80,-99.99,,,0.00,0,weatherlink.com 1.10,2013-10-30 06:24:00,
2013-10-30 02:39:00,48.6,43.0,30.14,East,87,0.0,-999.0,81,-99.99,,,0.00,0,weatherlink.com 1.10,2013-10-30 06:39:00,
2013-10-30 02:54:00,47.3,42.0,30.13,SE,139,0.0,-999.0,82,-99.99,,,0.00,0,weatherlink.com 1.10,2013-10-30 06:54:00,
2013-10-30 03:09:00,46.8,42.0,30.12,SE,139,0.0,-999.0,84,-99.99,,,0.00,0,weatherlink.com 1.10,2013-10-30 07:09:00,
2013-10-30 03:24:00,45.6,42.0,30.13,ENE,67,2.0,-999.0,86,-99.99,,,0.00,0,weatherlink.com 1.10,2013-10-30 07:24:00,
2013-10-30 03:39:00,45.6,42.0,30.12,ENE,73,1.0,-999.0,87,-99.99,,,0.00,0,weatherlink.com 1.10,2013-10-30 07:39:00,
2013-10-30 03:54:00,46.0,42.0,30.12,NE,43,2.0,-999.0,86,-99.99,,,0.00,0,weatherlink.com 1.10,2013-10-30 07:54:00,
2013-10-30 04:09:00,44.3,41.0,30.13,NE,43,2.0,-999.0,87,-99.99,,,0.00,0,weatherlink.com 1.10,2013-10-30 08:09:00,
2013-10-30 04:24:00,44.7,41.0,30.12,NE,52,1.0,-999.0,88,-99.99,,,0.00,0,weatherlink.com 1.10,2013-10-30 08:24:00,
2013-10-30 04:39:00,45.1,42.0,30.12,NE,54,0.0,-999.0,87,-99.99,,,0.00,0,weatherlink.com 1.10,2013-10-30 08:39:00,
2013-10-30 04:54:00,44.6,41.0,30.12,NE,54,0.0,-999.0,88,-99.99,,,0.00,0,weatherlink.com 1.10,2013-10-30 08:54:00,
2013-10-30 05:09:00,44.6,42.0,30.12,NE,54,1.0,-999.0,89,-99.99,,,0.00,0,weatherlink.com 1.10,2013-10-30 09:09:00,
2013-10-30 05:24:00,44.7,42.0,30.12,NE,54,2.0,-999.0,89,-99.99,,,0.00,0,weatherlink.com 1.10,2013-10-30 09:24:00,
2013-10-30 05:39:00,45.3,42.0,30.12,ENE,60,2.0,-999.0,88,-99.99,,,0.00,0,weatherlink.com 1.10,2013-10-30 09:39:00,
2013-10-30 05:54:00,45.8,42.0,30.12,ENE,65,3.0,-999.0,87,-99.99,,,0.00,0,weatherlink.com 1.10,2013-10-30 09:54:00,
2013-10-30 06:09:00,46.1,42.0,30.13,NE,45,0.0,-999.0,86,-99.99,,,0.00,0,weatherlink.com 1.10,2013-10-30 10:09:00,
2013-10-30 06:24:00,46.1,42.0,30.14,NE,53,1.0,-999.0,86,-99.99,,,0.00,0,weatherlink.com 1.10,2013-10-30 10:24:00,
2013-10-30 06:39:00,46.1,42.0,30.13,NE,48,3.0,-999.0,86,-99.99,,,0.00,0,weatherlink.com 1.10,2013-10-30 10:39:00,
2013-10-30 06:54:00,46.2,42.0,30.13,NE,47,2.0,-999.0,86,-99.99,,,0.00,0,weatherlink.com 1.10,2013-10-30 10:54:00,
2013-10-30 07:09:00,46.3,42.0,30.13,NE,56,3.0,-999.0,86,-99.99,,,0.00,0,weatherlink.com 1.10,2013-10-30 11:09:00,
2013-10-30 07:24:00,46.4,43.0,30.12,ENE,61,2.0,-999.0,86,-99.99,,,0.00,0,weatherlink.com 1.10,2013-10-30 11:24:00,
2013-10-30 07:39:00,46.5,43.0,30.12,NE,48,0.0,-999.0,86,-99.99,,,0.00,0,weatherlink.com 1.10,2013-10-30 11:39:00,
2013-10-30 07:54:00,46.7,43.0,30.12,ENE,60,3.0,-999.0,86,-99.99,,,0.00,0,weatherlink.com 1.10,2013-10-30 11:54:00,
2013-10-30 08:09:00,46.7,43.0,30.13,NE,39,0.0,-999.0,87,-99.99,,,0.00,0,weatherlink.com 1.10,2013-10-30 12:09:00,
2013-10-30 08:24:00,46.9,43.0,30.13,ENE,57,2.0,-999.0,87,-99.99,,,0.00,0,weatherlink.com 1.10,2013-10-30 12:24:00,
2013-10-30 08:39:00,47.1,44.0,30.13,NE,49,2.0,-999.0,87,-99.99,,,0.00,5,weatherlink.com 1.10,2013-10-30 12:39:00,
2013-10-30 08:54:00,47.4,44.0,30.14,ENE,59,0.0,-999.0,87,-99.99,,,0.00,12,weatherlink.com 1.10,2013-10-30 12:54:00,
2013-10-30 09:09:00,47.7,44.0,30.14,ENE,60,0.0,-999.0,87,-99.99,,,0.00,19,weatherlink.com 1.10,2013-10-30 13:09:00,
2013-10-30 09:24:00,48.1,44.0,30.14,ENE,62,3.0,-999.0,87,-99.99,,,0.00,44,weatherlink.com 1.10,2013-10-30 13:24:00,
2013-10-30 09:39:00,48.7,45.0,30.13,ENE,62,2.0,-999.0,87,-99.99,,,0.00,90,weatherlink.com 1.10,2013-10-30 13:39:00,
2013-10-30 09:54:00,49.6,46.0,30.13,ENE,73,0.0,-999.0,86,-99.99,,,0.00,76,weatherlink.com 1.10,2013-10-30 13:54:00,
2013-10-30 10:09:00,50.5,47.0,30.14,SE,129,1.0,-999.0,86,-99.99,,,0.00,72,weatherlink.com 1.10,2013-10-30 14:09:00,
2013-10-30 10:24:00,51.2,47.0,30.13,ESE,114,2.0,-999.0,86,-99.99,,,0.00,123,weatherlink.com 1.10,2013-10-30 14:24:00,
2013-10-30 10:39:00,52.0,48.0,30.13,ESE,102,1.0,-999.0,86,-99.99,,,0.00,132,weatherlink.com 1.10,2013-10-30 14:39:00,
2013-10-30 10:54:00,53.1,49.0,30.13,ENE,76,1.0,-999.0,86,-99.99,,,0.00,144,weatherlink.com 1.10,2013-10-30 14:54:00,
2013-10-30 11:09:00,54.1,50.0,30.13,SE,133,3.0,-999.0,85,-99.99,,,0.00,179,weatherlink.com 1.10,2013-10-30 15:09:00,
2013-10-30 11:24:00,54.4,50.0,30.14,SSE,147,4.0,-999.0,85,-99.99,,,0.00,149,weatherlink.com 1.10,2013-10-30 15:24:00,
2013-10-30 11:39:00,55.2,51.0,30.13,SE,130,3.0,-999.0,86,-99.99,,,0.00,174,weatherlink.com 1.10,2013-10-30 15:39:00,
2013-10-30 11:54:00,56.3,52.0,30.13,SSE,151,7.0,-999.0,85,-99.99,,,0.00,250,weatherlink.com 1.10,2013-10-30 15:54:00,
2013-10-30 12:09:00,57.5,53.0,30.11,SSE,147,8.0,-999.0,84,-99.99,,,0.00,265,weatherlink.com 1.10,2013-10-30 16:09:00,
2013-10-30 12:23:00,57.7,53.0,30.11,SSE,147,5.0,-999.0,84,-99.99,,,0.00,294,weatherlink.com 1.10,2013-10-30 16:23:00,
2013-10-30 12:38:00,58.6,54.0,30.10,SE,135,3.0,-999.0,83,-99.99,,,0.00,199,weatherlink.com 1.10,2013-10-30 16:38:00,
2013-10-30 12:53:00,58.9,54.0,30.09,SSE,164,6.0,-999.0,84,-99.99,,,0.00,192,weatherlink.com 1.10,2013-10-30 16:53:00,
2013-10-30 13:08:00,58.9,54.0,30.08,SSE,160,5.0,-999.0,84,-99.99,,,0.00,156,weatherlink.com 1.10,2013-10-30 17:08:00,
2013-10-30 13:23:00,59.2,55.0,30.08,SSE,165,5.0,-999.0,85,-99.99,,,0.00,148,weatherlink.com 1.10,2013-10-30 17:23:00,
2013-10-30 13:39:00,59.7,55.0,30.06,SSE,168,5.0,-999.0,84,-99.99,,,0.00,188,weatherlink.com 1.10,2013-10-30 17:39:00,
2013-10-30 13:54:00,59.6,55.0,30.05,South,171,7.0,-999.0,85,-99.99,,,0.00,156,weatherlink.com 1.10,2013-10-30 17:54:00,
2013-10-30 14:09:00,59.8,55.0,30.06,South,174,4.0,-999.0,84,-99.99,,,0.00,120,weatherlink.com 1.10,2013-10-30 18:09:00,
2013-10-30 14:24:00,60.6,56.0,30.04,SE,145,5.0,-999.0,84,-99.99,,,0.00,288,weatherlink.com 1.10,2013-10-30 18:24:00,
2013-10-30 14:39:00,60.9,55.0,30.04,SE,135,5.0,-999.0,82,-99.99,,,0.00,179,weatherlink.com 1.10,2013-10-30 18:39:00,
2013-10-30 14:54:00,61.1,56.0,30.03,SE,145,7.0,-999.0,83,-99.99,,,0.00,132,weatherlink.com 1.10,2013-10-30 18:54:00,
2013-10-30 15:09:00,61.5,56.0,30.03,SE,139,8.0,-999.0,83,-99.99,,,0.00,142,weatherlink.com 1.10,2013-10-30 19:09:00,
2013-10-30 15:24:00,61.6,56.0,30.03,SSE,165,6.0,-999.0,83,-99.99,,,0.00,97,weatherlink.com 1.10,2013-10-30 19:24:00,
2013-10-30 15:39:00,61.7,57.0,30.03,SE,144,7.0,-999.0,83,-99.99,,,0.00,88,weatherlink.com 1.10,2013-10-30 19:39:00,
2013-10-30 16:09:00,61.5,57.0,30.01,South,176,8.0,-999.0,85,-99.99,,,0.00,76,weatherlink.com 1.10,2013-10-30 20:09:00,
2013-10-30 16:39:00,61.9,57.0,30.00,SSE,155,6.0,-999.0,85,-99.99,,,0.00,67,weatherlink.com 1.10,2013-10-30 20:39:00,
2013-10-30 16:54:00,62.0,58.0,30.01,SSE,162,5.0,-999.0,86,-99.99,,,0.00,42,weatherlink.com 1.10,2013-10-30 20:54:00,
2013-10-30 17:09:00,61.9,58.0,29.99,SE,143,9.0,-999.0,86,-99.99,,,0.00,33,weatherlink.com 1.10,2013-10-30 21:09:00,
2013-10-30 17:24:00,61.8,58.0,29.98,SSE,147,6.0,-999.0,87,-99.99,,,0.00,19,weatherlink.com 1.10,2013-10-30 21:24:00,
2013-10-30 17:39:00,61.8,58.0,29.99,SE,143,6.0,-999.0,87,-99.99,,,0.00,16,weatherlink.com 1.10,2013-10-30 21:39:00,
2013-10-30 17:54:00,61.7,58.0,29.98,SE,139,5.0,-999.0,87,-99.99,,,0.00,11,weatherlink.com 1.10,2013-10-30 21:54:00,
2013-10-30 18:09:00,61.5,58.0,29.98,SE,139,9.0,-999.0,88,-99.99,,,0.00,7,weatherlink.com 1.10,2013-10-30 22:09:00,
2013-10-30 18:24:00,61.4,58.0,29.98,SE,145,6.0,-999.0,89,-99.99,,,0.00,0,weatherlink.com 1.10,2013-10-30 22:24:00,
2013-10-30 18:39:00,61.3,58.0,29.98,SE,136,5.0,-999.0,89,-99.99,,,0.00,0,weatherlink.com 1.10,2013-10-30 22:39:00,
2013-10-30 18:54:00,61.2,58.0,29.98,SSE,164,3.0,-999.0,89,-99.99,,,0.00,0,weatherlink.com 1.10,2013-10-30 22:54:00,
2013-10-30 19:09:00,61.1,58.0,29.98,South,170,5.0,-999.0,90,-99.99,,,0.00,0,weatherlink.com 1.10,2013-10-30 23:09:00,
2013-10-30 19:39:00,60.6,59.0,29.98,SE,139,7.0,-999.0,93,-99.99,,,0.00,0,weatherlink.com 1.10,2013-10-30 23:39:00,
2013-10-30 19:54:00,60.2,59.0,29.97,SE,137,5.0,-999.0,94,-99.99,,,0.00,0,weatherlink.com 1.10,2013-10-30 23:54:00,
2013-10-30 20:09:00,59.9,59.0,29.97,SSE,154,4.0,-999.0,95,-99.99,,,0.00,0,weatherlink.com 1.10,2013-10-31 00:09:00,
2013-10-30 20:24:00,59.9,59.0,29.96,SE,145,7.0,-999.0,95,-99.99,,,0.00,0,weatherlink.com 1.10,2013-10-31 00:24:00,
2013-10-30 20:39:00,59.9,59.0,29.96,SE,145,7.0,-999.0,96,-99.99,,,0.00,0,weatherlink.com 1.10,2013-10-31 00:39:00,
2013-10-30 20:54:00,60.0,59.0,29.94,SE,137,5.0,-999.0,96,-99.99,,,0.00,0,weatherlink.com 1.10,2013-10-31 00:54:00,
2013-10-30 21:09:00,60.2,59.0,29.93,SE,145,6.0,-999.0,96,-99.99,,,0.00,0,weatherlink.com 1.10,2013-10-31 01:09:00,
2013-10-30 21:24:00,60.4,60.0,29.93,SE,141,7.0,-999.0,97,-99.99,,,0.01,0,weatherlink.com 1.10,2013-10-31 01:24:00,
2013-10-30 21:39:00,60.5,60.0,29.92,SSE,160,7.0,-999.0,97,-99.99,,,0.02,0,weatherlink.com 1.10,2013-10-31 01:39:00,
2013-10-30 21:54:00,60.6,60.0,29.91,South,172,8.0,-999.0,97,-99.99,,,0.02,0,weatherlink.com 1.10,2013-10-31 01:54:00,
2013-10-30 22:09:00,60.6,60.0,29.91,South,174,6.0,-999.0,97,-99.99,,,0.02,0,weatherlink.com 1.10,2013-10-31 02:09:00,
2013-10-30 22:24:00,61.2,60.0,29.90,SSE,168,6.0,-999.0,97,-99.99,,,0.03,0,weatherlink.com 1.10,2013-10-31 02:24:00,
2013-10-30 22:39:00,61.6,61.0,29.90,SSE,168,7.0,-999.0,97,-99.99,,,0.03,0,weatherlink.com 1.10,2013-10-31 02:39:00,
2013-10-30 22:54:00,62.0,61.0,29.90,SSE,167,9.0,-999.0,97,-99.99,,,0.03,0,weatherlink.com 1.10,2013-10-31 02:54:00,
2013-10-30 23:09:00,62.7,62.0,29.90,South,172,7.0,-999.0,97,-99.99,,,0.03,0,weatherlink.com 1.10,2013-10-31 03:09:00,
2013-10-30 23:24:00,63.2,62.0,29.90,SSW,196,11.0,-999.0,97,-99.99,,,0.04,0,weatherlink.com 1.10,2013-10-31 03:24:00,
2013-10-30 23:39:00,63.6,63.0,29.90,SSW,197,13.0,-999.0,96,-99.99,,,0.05,0,weatherlink.com 1.10,2013-10-31 03:39:00,
2013-10-30 23:54:00,63.7,63.0,29.89,South,177,19.0,-999.0,96,-99.99,,,0.06,0,weatherlink.com 1.10,2013-10-31 03:54:00,